Location: Auttagershofen
(48.1940°N, 10.0237°E)
Time: 08:53:50
(UTC+00:00)

SL-23 DEB - Pass Details

Date: 18 January 2026
Orbit: 423 x 3435 km, 51.4° (Epoch: 15 February)

Event Time Altitude Azimuth Distance (km) Brightness Sun altitude
Exits shadow 05:58:13 16° 278° (W) 1,197 4.9 -10.7°
Maximum altitude 06:00:32 52° 352° (N) 546 3.6 -10.3°
Drops below altitude 10° 06:03:58 10° 70° (ENE) 1,699 7.1 -9.8°
Sets 06:06:29 0° 76° (ENE) 2,804 8.4 -9.4°
